Location: *
(45.0500°N, 12.0500°E)
Time: 16:16:21
(UTC+00:00)

USA 234 - Pass Details

Date: 09 April 2020
Orbit: 1102 x 1106 km, 123.0° (Epoch: 14 May)

Event Time Altitude Azimuth Distance (km) Brightness Sun altitude
Rises 19:50:59 0° 53° (NE) 3,925 6.0 -20.3°
Reaches altitude 10° 19:53:35 10° 59° (ENE) 2,965 5.3 -20.6°
Maximum altitude 19:59:53 49° 133° (SE) 1,393 3.3 -21.5°
Drops below altitude 10° 20:06:10 10° 207° (SSW) 2,954 5.4 -22.4°
Sets 20:08:45 0° 213° (SSW) 3,909 6.1 -22.8°
